Content
SEND FEEDBACK

Daily
Averages
Monthly
Summary
United States of America

COOPERSTOWN, NORTH DAKOTA


Home > North America > United States > North Dakota
Elevation: 1431 feet     Latitude: 47 27N     Longitude: 098 07W

WEATHER
 
SELECT A DAY
Number of Records: 67,296;   Date Range: 6/1/11 - 6/21/14
 
SHARE

PRINT THIS DATA

[ ← Previous Day ]
WEATHER ALMANAC - JANUARY 23, 2013
[ Next Day → ]
[ °C ]   °F
Weather ElementAverageHighLow
Temperature-5.7 °F3.2 °F (1:55 am)-14.8 °F (9:15 pm)
Dewpoint-11.3 °F1.4 °F (1:55 am)-22 °F (10:55 pm)
Humidity76.6 %100 % (1:15 am)60 % (3:15 pm)
Barometer30.36 in30.58 in (10:55 pm)30.08 in (12:35 am)
Wind Speed12.8 mph20.7 mph (12:55 pm)
Wind Gust27.6 mph (10:55 am)
Weather ElementAverage
Visibility10 mi
Wind DirectionWSW (254.9 °)

Weather ElementTotal
Precipitation---
Heating Degree Days70.8 (Base 65)
Averaged from 69 records on January 23, 2013
WEATHER CONDITIONS BREAKOUT
WIND DIRECTION BREAKOUT
WEATHER BY HOUR - JANUARY 23, 2013
[ °C ]   °F
Local TimeTemperatureDewpointHumidityBarometerVisibilityWind DirectionWind SpeedGust SpeedPrecipitationEventsConditions
12:35 AM1.4 °F-0.4 °F92 %30.08 in10.0 miWSW (250°)5.8 mphPartly Cloudy
12:55 AM-0.4 °F-2.2 °F92 %30.09 in10.0 miWest (270°)9.2 mphClear
1:15 AM-0.4 °F-0.4 °F100 %30.09 in10.0 miWest (280°)9.2 mphClear
1:35 AM1.4 °F-0.4 °F92 %30.09 in10.0 miWNW (290°)8.1 mphClear
1:55 AM3.2 °F1.4 °F92 %30.09 in10.0 miWNW (300°)10.4 mphClear
2:15 AM1.4 °F-0.4 °F92 %30.10 in10.0 miNW (310°)10.4 mphClear
2:35 AM-0.4 °F-0.4 °F100 %30.11 in10.0 miNW (310°)10.4 mphClear
2:55 AM-0.4 °F-0.4 °F100 %30.11 in10.0 miNW (320°)11.5 mphClear
3:15 AM1.4 °F-0.4 °F92 %30.11 in10.0 miNW (320°)12.7 mphClear
3:35 AM1.4 °F-0.4 °F92 %30.12 in10.0 miNW (320°)11.5 mphClear
3:55 AM-0.4 °F-2.2 °F92 %30.13 in10.0 miNW (310°)12.7 mphClear
4:15 AM-0.4 °F-2.2 °F92 %30.13 in10.0 miNW (320°)13.8 mphClear
4:35 AM-0.4 °F-2.2 °F92 %30.14 in10.0 miNNW (330°)11.5 mphClear
4:55 AM-0.4 °F-2.2 °F92 %30.15 in10.0 miNW (320°)11.5 mphClear
5:15 AM-0.4 °F-4.0 °F85 %30.15 in10.0 miNW (320°)16.1 mph23.0 mphScattered Clouds
5:35 AM-0.4 °F-4.0 °F85 %30.17 in10.0 miNNW (330°)13.8 mphScattered Clouds
5:55 AM-2.2 °F-5.8 °F85 %30.18 in10.0 miNNW (330°)16.1 mphScattered Clouds
6:15 AM-2.2 °F-7.6 °F78 %30.19 in10.0 miNNW (330°)15.0 mph20.7 mphPartly Cloudy
6:35 AM-2.2 °F-7.6 °F78 %30.20 in10.0 miNNW (330°)13.8 mphClear
6:55 AM-2.2 °F-7.6 °F78 %30.21 in10.0 miNNW (340°)15.0 mphClear
7:15 AM-4.0 °F-7.6 °F85 %30.23 in10.0 miNNW (340°)15.0 mph19.6 mphClear
7:35 AM-4.0 °F-9.4 °F78 %30.24 in10.0 miNNW (340°)16.1 mphClear
7:55 AM-4.0 °F-9.4 °F78 %30.24 in10.0 miNNW (340°)13.8 mphClear
8:15 AM-4.0 °F-9.4 °F78 %30.26 in10.0 miNNW (340°)15.0 mphClear
8:35 AM-5.8 °F-9.4 °F84 %30.27 in10.0 miNNW (340°)13.8 mphClear
8:55 AM-4.0 °F-9.4 °F78 %30.30 in10.0 miNNW (340°)13.8 mphClear
9:15 AM-5.8 °F-11.2 °F77 %30.31 in10.0 miNNW (340°)15.0 mphClear
9:35 AM-5.8 °F-11.2 °F77 %30.33 in10.0 miNNW (340°)15.0 mphClear
9:55 AM-5.8 °F-11.2 °F77 %30.35 in10.0 miNNW (340°)13.8 mphMostly Cloudy
10:15 AM-4.0 °F-11.2 °F71 %30.36 in10.0 miNorth (350°)15.0 mph20.7 mphOvercast
10:35 AM-4.0 °F-11.2 °F71 %30.37 in10.0 miNorth (360°)16.1 mphOvercast
10:55 AM-4.0 °F0.0 °F30.39 in10.0 miNorth (350°)19.6 mph27.6 mphMostly Cloudy
11:15 AM-4.0 °F-11.2 °F71 %30.40 in10.0 miNorth (350°)17.3 mph26.5 mphPartly Cloudy
11:35 AM-4.0 °F-11.2 °F71 %30.40 in10.0 miNorth (350°)19.6 mph23.0 mphClear
11:55 AM-4.0 °F-11.2 °F71 %30.40 in10.0 miNorth (360°)18.4 mphPartly Cloudy
12:15 PM-4.0 °F-13.0 °F65 %30.42 in10.0 miNorth (350°)17.3 mph25.3 mphClear
12:35 PM-4.0 °F-13.0 °F65 %30.42 in10.0 miNorth (360°)19.6 mphClear
12:55 PM-4.0 °F-13.0 °F65 %30.42 in10.0 miNorth (360°)20.7 mphClear
1:15 PM-4.0 °F-13.0 °F65 %30.43 in10.0 miNorth (360°)20.7 mph24.2 mphClear
1:35 PM-4.0 °F-13.0 °F65 %30.43 in10.0 miNorth (10°)19.6 mph25.3 mphClear
1:55 PM-4.0 °F-13.0 °F65 %30.43 in10.0 miNorth (10°)17.3 mph24.2 mphClear
2:15 PM-4.0 °F-13.0 °F65 %30.43 in10.0 miNorth (10°)18.4 mphClear
2:35 PM-4.0 °F-13.0 °F65 %30.44 in10.0 miNorth (10°)17.3 mphClear
2:55 PM-4.0 °F-13.0 °F65 %30.46 in10.0 miNorth (10°)16.1 mphClear
3:15 PM-4.0 °F-14.8 °F60 %30.46 in10.0 miNorth (360°)17.3 mphClear
3:35 PM-5.8 °F-14.8 °F65 %30.48 in10.0 miNorth (350°)19.6 mphClear
3:55 PM-7.6 °F-16.6 °F65 %30.50 in10.0 miNorth (360°)13.8 mphClear
4:15 PM-7.6 °F-16.6 °F65 %30.51 in10.0 miNorth (10°)12.7 mphClear
4:35 PM-7.6 °F-16.6 °F65 %30.52 in10.0 miNorth (350°)12.7 mphClear
4:55 PM-7.6 °F-16.6 °F65 %30.53 in10.0 miNNW (340°)11.5 mphClear
5:15 PM-9.4 °F-16.6 °F71 %30.53 in10.0 miNorth (350°)10.4 mphClear
5:35 PM-9.4 °F-16.6 °F71 %30.54 in10.0 miNorth (350°)9.2 mphClear
5:55 PM-11.2 °F-18.4 °F70 %30.55 in10.0 miNorth (350°)8.1 mphClear
6:15 PM-11.2 °F-18.4 °F70 %30.54 in10.0 miNorth (360°)9.2 mphClear
6:35 PM-11.2 °F-18.4 °F70 %30.54 in10.0 miNorth (360°)8.1 mphClear
6:55 PM-11.2 °F-18.4 °F70 %30.54 in10.0 miNorth (360°)8.1 mphClear
7:15 PM-13.0 °F-18.4 °F77 %30.55 in10.0 miNorth (10°)6.9 mphClear
7:55 PM-13.0 °F-20.2 °F70 %30.55 in10.0 miNNE (20°)6.9 mphClear
8:35 PM-13.0 °F-20.2 °F70 %30.54 in10.0 miNE (40°)9.2 mphClear
8:55 PM-13.0 °F-20.2 °F70 %30.54 in10.0 miENE (60°)9.2 mphClear
9:15 PM-14.8 °F-20.2 °F77 %30.56 in10.0 miENE (70°)8.1 mphClear
9:35 PM-14.8 °F-20.2 °F77 %30.57 in10.0 miENE (60°)8.1 mphClear
9:55 PM-14.8 °F-20.2 °F77 %30.57 in10.0 miENE (70°)8.1 mphClear
10:15 PM-14.8 °F-20.2 °F77 %30.57 in10.0 miEast (80°)5.8 mphClear
10:35 PM-14.8 °F-20.2 °F77 %30.57 in10.0 miENE (70°)6.9 mphClear
10:55 PM-14.8 °F-22.0 °F70 %30.58 in10.0 miEast (90°)8.1 mphClear
11:15 PM-14.8 °F-22.0 °F70 %30.58 in10.0 miENE (70°)5.8 mphClear
11:35 PM-14.8 °F-22.0 °F70 %30.57 in10.0 miEast (80°)8.1 mphClear
11:55 PM-14.8 °F-22.0 °F70 %30.56 in10.0 miEast (80°)9.2 mphClear
Hourly data recorded from KS32, located miles away from Cooperstown, North Dakota







STORIES FROM OUR PARTNERS